FW4586 Weather Reports


time (UTC)temp
F
wind
direction
speed
knots
gust
knots
rain 1hr
in
rain 24hr
in
rain mn
in
humidity
%
barometer
mb
20260505051538 43 179 13.0 16.5 0.00 0.18 0.00 85 1006.0
20260505041531 44 174 12.2 20.0 0.00 0.18 0.00 82 1005.6
20260505040024 44 218 12.2 18.2 0.00 0.18 0.00 82 1005.6
20260505034523 45 247 9.6 23.5 0.00 0.18 0.00 80 1005.5
20260505033021 45 220 11.3 21.7 0.00 0.18 0.00 80 1005.2
20260505031518 44 231 13.9 20.9 0.00 0.18 0.00 81 1005.0
20260505030013 44 216 10.4 20.0 0.00 0.18 0.18 81 1004.9
20260505024532 44 249 10.4 20.9 0.00 0.18 0.18 81 1004.6
20260505023010 44 267 12.2 24.3 0.00 0.18 0.18 82 1004.3
20260505021508 44 221 14.8 20.9 0.00 0.18 0.18 81 1004.2
20260505020007 45 236 15.6 23.5 0.00 0.18 0.18 79 1004.0
20260505014507 46 257 17.4 31.3 0.00 0.18 0.18 75 1003.8
20260505013015 46 221 18.2 27.8 0.00 0.18 0.18 74 1003.6
20260505011502 47 240 14.8 26.1 0.00 0.18 0.18 72 1003.4
20260505010003 46 219 13.9 23.5 0.00 0.21 0.18 71 1003.3
20260505004502 47 221 13.9 22.6 0.00 0.21 0.18 69 1003.3
20260505003100 47 241 12.2 27.8 0.00 0.21 0.18 68 1003.4
20260505001559 46 262 13.9 23.5 0.00 0.21 0.18 68 1003.0
20260505000107 45 233 15.6 23.5 0.00 0.21 0.18 68 1002.8
20260504234619 45 223 10.4 20.0 0.00 0.24 0.18 69 1002.3
20260504233053 45 216 9.6 16.5 0.00 0.24 0.18 69 1002.3
20260504231601 44 226 7.8 17.4 0.00 0.24 0.18 67 1002.1
20260504230050 45 212 10.4 20.0 0.00 0.24 0.18 66 1002.1
20260504224550 46 224 9.6 15.6 0.00 0.34 0.18 65 1002.0
20260504223049 46 244 10.4 18.2 0.00 0.34 0.18 64 1002.0
20260504221557 47 176 8.7 14.8 0.00 0.34 0.18 64 1002.0
20260504220046 47 214 10.4 20.0 0.00 0.34 0.18 65 1001.7
20260504214545 48 221 11.3 18.2 0.00 0.43 0.18 63 1001.5
20260504213043 48 231 11.3 20.9 0.00 0.43 0.18 62 1001.5
20260504211548 48 231 11.3 22.6 0.00 0.43 0.18 65 1001.4
20260504210100 48 238 13.0 27.8 0.00 0.43 0.18 66 1001.0
20260504204546 48 234 12.2 24.3 0.00 0.49 0.18 66 1000.9
20260504203037 48 224 13.9 22.6 0.00 0.49 0.18 68 1000.5
20260504201532 47 193 13.0 24.3 0.00 0.49 0.18 71 1000.6
20260504200032 47 277 13.0 22.6 0.00 0.49 0.18 71 1000.3
20260504194542 46 241 15.6 20.0 0.00 0.54 0.18 74 1000.1
20260504193028 45 272 10.4 17.4 0.00 0.54 0.18 79 999.9
20260504191529 45 231 10.4 21.7 0.00 0.54 0.18 80 999.8
20260504190023 44 250 13.0 19.1 0.00 0.54 0.18 80 999.8
20260504184525 45 221 8.7 20.0 0.00 0.54 0.18 79 999.6
20260504183019 44 243 9.6 15.6 0.00 0.54 0.18 80 999.4
20260504181514 43 246 9.6 18.2 0.00 0.54 0.18 81 999.5
20260504180014 42 260 11.3 20.0 0.00 0.54 0.18 85 999.4
20260504174509 41 240 9.6 15.6 0.00 0.54 0.18 87 999.0
20260504173014 41 257 8.7 15.6 0.00 0.54 0.18 87 998.7
20260504171505 41 261 11.3 17.4 0.00 0.54 0.18 88 998.4
20260504081517 37 257 4.3 7.8 0.02 0.45 0.09 96 977.2